Salem, OR

7:42 AM PDT on May 27, 2018 (GMT -0700)
McNary

Weather History for KSLE - January, 2014

Change the Weather History Date:

Monday, January 6, 2014

  Actual Average Record
Temperature  
Mean Temperature 36 °F 40 °F  
Max Temperature 44 °F 46 °F 60 °F (1928)
Min Temperature 28 °F 34 °F 14 °F (1937)
Degree Days  
Heating Degree Days 29 25  
Month to date heating degree days 162 150  
Since 1 July heating degree days 2092 2039  
Cooling Degree Days 0 0  
Month to date cooling degree days 0 0  
Year to date cooling degree days 0 0  
Moisture  
Dew Point 32 °F    
Average Humidity 77    
Maximum Humidity 92    
Minimum Humidity 62    
Precipitation  
Precipitation 0.01 in 0.20 in 2.42 in (1948)
Month to date precipitation 0.09 1.24  
Year to date precipitation 0.09 1.24  
Sea Level Pressure  
Sea Level Pressure 30.23 in    
Wind  
Wind Speed 3 mph (SSE)    
Max Wind Speed 10 mph    
Max Gust Speed 11 mph    
Visibility 10 miles    
Events Rain    
T = Trace of Precipitation, MM = Missing Value Source: NWS Daily Summary

Daily Weather History Graph

Daily Weather History Graph

Search for Another Location

Airport or City:

Astronomy

Jan. 06, 2014 Rise Set
Actual Time 7:49 AM PST 4:46 PM PST
Civil Twilight 7:16 AM PST 5:19 PM PST
Nautical Twilight 6:39 AM PST 5:56 PM PST
Astronomical Twilight 6:04 AM PST 6:32 PM PST
Moon 10:51 AM PST (1/6) 11:44 PM PST (1/6)
Length of Visible Light 10h 03m
Length of Day
8h 56m
Waxing Crescent, 36% of the Moon is Illuminated
Jan 6
Waxing Crescent
Jan 7
First Quarter
Jan 15
Full
Jan 23
Last Quarter
Jan 30
New

Hourly Weather History & Observations

Time (PST) Temp. Windchill Dew Point Humidity Pressure Visibility Wind Dir Wind Speed Gust Speed Precip Events Conditions
12:56 AM 28.9 °F - 26.1 °F 89% 30.25 in 10.0 mi Calm Calm - N/A   Clear
1:56 AM 30.0 °F 26.5 °F 26.1 °F 85% 30.24 in 10.0 mi South 3.5 mph - N/A   Clear
2:56 AM 30.9 °F 22.8 °F 28.0 °F 89% 30.25 in 10.0 mi SE 9.2 mph - N/A   Clear
3:56 AM 30.9 °F 25.2 °F 28.9 °F 92% 30.25 in 10.0 mi South 5.8 mph - N/A   Clear
4:56 AM 30.9 °F 27.5 °F 28.0 °F 89% 30.25 in 10.0 mi SE 3.5 mph - N/A   Clear
5:56 AM 30.9 °F 27.5 °F 28.9 °F 92% 30.24 in 10.0 mi SE 3.5 mph - N/A   Clear
6:56 AM 30.0 °F 25.2 °F 28.0 °F 92% 30.25 in 10.0 mi SE 4.6 mph - N/A   Clear
7:56 AM 30.9 °F 25.2 °F 28.9 °F 92% 30.27 in 10.0 mi South 5.8 mph - N/A   Clear
8:56 AM 32.0 °F 26.4 °F 28.9 °F 88% 30.27 in 10.0 mi South 5.8 mph - N/A   Mostly Cloudy
9:56 AM 37.0 °F - 32.0 °F 82% 30.28 in 10.0 mi Calm Calm - N/A   Clear
10:56 AM 39.9 °F 35.1 °F 33.1 °F 77% 30.27 in 10.0 mi SE 6.9 mph - N/A   Clear
11:56 AM 41.0 °F 38.0 °F 34.0 °F 76% 30.25 in 10.0 mi Variable 4.6 mph - N/A   Clear
12:56 PM 42.1 °F - 33.1 °F 70% 30.22 in 10.0 mi Calm Calm - N/A   Clear
1:56 PM 43.0 °F - 33.1 °F 68% 30.20 in 10.0 mi Calm Calm - N/A   Clear
2:56 PM 44.1 °F - 32.0 °F 63% 30.19 in 10.0 mi Calm Calm - N/A   Clear
3:56 PM 43.0 °F - 34.0 °F 71% 30.19 in 10.0 mi Calm Calm - N/A   Partly Cloudy
4:56 PM 42.1 °F - 34.0 °F 73% 30.19 in 10.0 mi Calm Calm - 0.00 in Rain Light Rain
5:56 PM 39.9 °F - 35.1 °F 83% 30.19 in 10.0 mi Calm Calm - 0.00 in   Overcast
6:56 PM 39.9 °F - 35.1 °F 83% 30.20 in 10.0 mi Calm Calm - N/A   Overcast
7:56 PM 41.0 °F 39.0 °F 33.1 °F 73% 30.21 in 10.0 mi WSW 3.5 mph - N/A   Overcast
8:56 PM 39.9 °F 37.8 °F 36.0 °F 86% 30.21 in 10.0 mi SSE 3.5 mph - 0.00 in Rain Light Rain
9:56 PM 39.9 °F 37.8 °F 37.0 °F 89% 30.21 in 10.0 mi SE 3.5 mph - 0.00 in Rain Light Rain
10:56 PM 39.9 °F 33.9 °F 37.9 °F 93% 30.19 in 7.0 mi SSE 9.2 mph - 0.00 in Rain Light Rain
11:56 PM 39.9 °F 37.8 °F 37.9 °F 93% 30.19 in 8.0 mi ESE 3.5 mph - 0.01 in Rain Light Rain